General Aviation Weather

Text Reports

Enter one or more of the following location identifiers separated by a space:

Zip Code, Four-Character ICAO or Three-Character IATA airport codes.

METAR - Aviation Routine Weather Report
KSCH - Schenectady, New York
Updated at 12:55 PM GMT on July 23, 2014 (8:55 AM EDT):
METAR KSCH 231255Z 17006KT 10SM CLR 26/21 A2990
TAF - Terminal Area Forecast
KSCH - Schenectady, New York
Updated at 12:55 PM GMT on July 23, 2014 (8:55 AM EDT):
No TAF is currently available for this location.
Decoded:
No decoded TAF is available.
PIREP - Pilot Weather Report
KSCH - Schenectady, New York
Updated at 12:55 PM GMT on July 23, 2014 (8:55 AM EDT):
No PIREP is currently available for this location.
AIRMET - Airmens Meteorological Information
KSCH - Schenectady, New York
Updated at 12:55 PM GMT on July 23, 2014 (8:55 AM EDT):
No AIRMET is currently available for this location.
SIGMET - Significant Meteorological Information
KSCH - Schenectady, New York
Updated at 12:55 PM GMT on July 23, 2014 (8:55 AM EDT):
No SIGMET is currently available for this location.
NOTAM - Notice to Airmen
KSCH - Schenectady, New York
Updated at 12:55 PM GMT on July 23, 2014 (8:55 AM EDT):
No NOTAM is currently available for this location.
Forecast Area
KSCH - Schenectady, New York
Updated at 12:55 PM GMT on July 23, 2014 (8:55 AM EDT):
No NOTAM is currently available for this location.
Aviation Weather Maps